| time (UTC) | temp C | wind direction | speed KPH | gust KPH | rain 1hr cm | rain 24hr cm | rain mn cm | humidity % | barometer mb |
| 20260503224844 | 7 | 3.2 | 0.0 | 0.00 | 0.00 | 0.00 | 76 | 1017.0 | |
| 20260503223356 | 7 | 3.2 | 0.0 | 0.00 | 0.00 | 0.00 | 76 | 1017.0 | |
| 20260503221904 | 7 | 3.2 | 0.0 | 0.00 | 0.00 | 0.00 | 71 | 1017.0 | |
| 20260503220429 | 7 | 3.2 | 0.0 | 0.00 | 0.00 | 0.00 | 71 | 1017.0 | |
| 20260503214851 | 8 | 100 | 8.0 | 0.0 | 0.00 | 0.00 | 0.00 | 62 | 1018.0 |
| 20260503213347 | 8 | 100 | 8.0 | 0.0 | 0.00 | 0.00 | 0.00 | 62 | 1018.0 |
| 20260503211848 | 10 | 20 | 3.2 | 0.0 | 0.00 | 0.00 | 0.00 | 58 | 1018.0 |
| 20260503210347 | 10 | 20 | 3.2 | 0.0 | 0.00 | 0.00 | 0.00 | 58 | 1018.0 |
| 20260503204854 | 8 | 0 | 0.0 | 0.0 | 0.00 | 0.00 | 0.00 | 62 | 1018.0 |
| 20260503203508 | 8 | 0 | 0.0 | 0.0 | 0.00 | 0.00 | 0.00 | 62 | 1018.0 |
| 20260503201848 | 10 | 3.2 | 0.0 | 0.00 | 0.00 | 0.00 | 58 | 1018.0 | |
| 20260503200357 | 10 | 3.2 | 0.0 | 0.00 | 0.00 | 0.00 | 58 | 1018.0 | |
| 20260503194913 | 8 | 3.2 | 0.0 | 0.00 | 0.00 | 0.00 | 62 | 1018.0 | |
| 20260503193510 | 8 | 3.2 | 0.0 | 0.00 | 0.00 | 0.00 | 62 | 1018.0 | |
| 20260503191845 | 10 | 120 | 3.2 | 0.0 | 0.00 | 0.00 | 0.00 | 54 | 1019.0 |
| 20260503190348 | 10 | 120 | 3.2 | 0.0 | 0.00 | 0.00 | 0.00 | 54 | 1019.0 |
| 20260503185008 | 10 | 310 | 4.8 | 0.0 | 0.00 | 0.00 | 0.00 | 47 | 1019.0 |
| 20260503183347 | 10 | 310 | 4.8 | 0.0 | 0.00 | 0.00 | 0.00 | 47 | 1019.0 |
| 20260503181847 | 11 | 310 | 4.8 | 0.0 | 0.00 | 0.00 | 0.00 | 47 | 1019.0 |
| 20260503180347 | 11 | 310 | 4.8 | 0.0 | 0.00 | 0.00 | 0.00 | 47 | 1019.0 |
| 20260503174907 | 11 | 280 | 9.7 | 0.0 | 0.00 | 0.00 | 0.00 | 50 | 1018.0 |
| 20260503173412 | 11 | 280 | 9.7 | 0.0 | 0.00 | 0.00 | 0.00 | 50 | 1018.0 |
| 20260503171847 | 12 | 340 | 8.0 | 0.0 | 0.00 | 0.00 | 0.00 | 38 | 1018.0 |
| 20260503170348 | 12 | 340 | 8.0 | 0.0 | 0.00 | 0.00 | 0.00 | 38 | 1018.0 |
| 20260503150347 | 17 | 3.2 | 0.0 | 0.00 | 0.00 | 0.00 | 30 | 1019.0 | |
| 20260503130348 | 17 | 330 | 9.7 | 0.0 | 0.00 | 0.00 | 0.00 | 30 | 1020.0 |
| 20260503110408 | 15 | 20 | 12.9 | 0.0 | 0.00 | 0.00 | 0.00 | 31 | 1022.0 |
| 20260503090408 | 13 | 310 | 12.9 | 0.0 | 0.00 | 0.00 | 0.00 | 36 | 1023.0 |
| 20260503080358 | 12 | 20 | 9.7 | 0.0 | 0.00 | 0.00 | 0.00 | 36 | 1024.0 |
| 20260503071846 | 10 | 310 | 4.8 | 0.0 | 0.00 | 0.00 | 0.00 | 54 | 1024.0 |
| 20260503070348 | 10 | 310 | 4.8 | 0.0 | 0.00 | 0.00 | 0.00 | 54 | 1024.0 |
| 20260503054847 | 7 | 1.6 | 0.0 | 0.00 | 0.00 | 0.00 | 76 | 1024.0 | |
| 20260503053347 | 7 | 1.6 | 0.0 | 0.00 | 0.00 | 0.00 | 76 | 1024.0 | |
| 20260503051847 | 3 | 1.6 | 0.0 | 0.00 | 0.00 | 0.00 | 87 | 1023.0 | |
| 20260503050347 | 3 | 1.6 | 0.0 | 0.00 | 0.00 | 0.00 | 87 | 1023.0 | |
| 20260503044847 | 2 | 330 | 3.2 | 0.0 | 0.00 | 0.00 | 0.00 | 93 | 1023.0 |
| 20260503043348 | 2 | 330 | 3.2 | 0.0 | 0.00 | 0.00 | 0.00 | 93 | 1023.0 |
| 20260503041847 | 0 | 310 | 3.2 | 0.0 | 0.00 | 0.00 | 0.00 | 93 | 1023.0 |
| 20260503040410 | 0 | 310 | 3.2 | 0.0 | 0.00 | 0.00 | 0.00 | 93 | 1023.0 |
| 20260503034846 | -1 | 320 | 4.8 | 0.0 | 0.00 | 0.00 | 0.00 | 93 | 1023.0 |
| 20260503033347 | -1 | 320 | 4.8 | 0.0 | 0.00 | 0.00 | 0.00 | 93 | 1023.0 |
| 20260503031844 | 0 | 360 | 4.8 | 0.0 | 0.00 | 0.00 | 0.00 | 93 | 1023.0 |
| 20260503030347 | 0 | 360 | 4.8 | 0.0 | 0.00 | 0.00 | 0.00 | 93 | 1023.0 |
| 20260503024902 | -1 | 340 | 4.8 | 0.0 | 0.00 | 0.00 | 0.00 | 93 | 1023.0 |
| 20260503023348 | -1 | 340 | 4.8 | 0.0 | 0.00 | 0.00 | 0.00 | 93 | 1023.0 |
| 20260503021847 | 0 | 340 | 8.0 | 0.0 | 0.00 | 0.00 | 0.00 | 87 | 1023.0 |
| 20260503020347 | 0 | 340 | 8.0 | 0.0 | 0.00 | 0.00 | 0.00 | 87 | 1023.0 |
| 20260503014844 | 0 | 10 | 4.8 | 0.0 | 0.00 | 0.00 | 0.00 | 87 | 1023.0 |
| 20260503013347 | 0 | 10 | 4.8 | 0.0 | 0.00 | 0.00 | 0.00 | 87 | 1023.0 |
| 20260503011848 | 2 | 20 | 8.0 | 0.0 | 0.00 | 0.00 | 0.00 | 87 | 1023.0 |
| 20260503010348 | 2 | 20 | 8.0 | 0.0 | 0.00 | 0.00 | 0.00 | 87 | 1023.0 |
| 20260503004844 | 1 | 10 | 4.8 | 0.0 | 0.00 | 0.00 | 0.00 | 93 | 1023.0 |
| 20260503003347 | 1 | 10 | 4.8 | 0.0 | 0.00 | 0.00 | 0.00 | 93 | 1023.0 |
| 20260503001847 | 2 | 360 | 4.8 | 0.0 | 0.00 | 0.00 | 0.00 | 87 | 1023.0 |
| 20260503000347 | 2 | 360 | 4.8 | 0.0 | 0.00 | 0.00 | 0.00 | 87 | 1023.0 |
| 20260502234847 | 2 | 340 | 8.0 | 0.0 | 0.00 | 0.00 | 0.00 | 87 | 1023.0 |
| 20260502233347 | 2 | 340 | 8.0 | 0.0 | 0.00 | 0.00 | 0.00 | 87 | 1023.0 |
| 20260502231848 | 2 | 30 | 3.2 | 0.0 | 0.00 | 0.00 | 0.00 | 87 | 1023.0 |
| 20260502230348 | 2 | 30 | 3.2 | 0.0 | 0.00 | 0.00 | 0.00 | 87 | 1023.0 |